Location: Unspecified
(43.9500°N, 64.7900°W)
Time: 16:28:50
(UTC-03:00)

Tiangong 2 - Visible Passes

Search period start: 25 June 2018 00:00
Search period end: 05 July 2018 00:00
Orbit: 385 x 396 km, 42.8° (Epoch: 25 June)

Date Brightness Start Highest point End Pass type
(mag) Time Alt. Az. Time Alt. Az. Time Alt. Az.
26 Jun 3.4 04:57:41 10° S 04:59:30 14° SSE 05:01:20 10° ESE visible
28 Jun 2.7 04:38:46 12° SSW 04:41:01 23° SSE 04:43:39 10° E visible
29 Jun 3.2 03:43:39 16° SSE 03:43:39 16° SSE 03:45:38 10° ESE visible
30 Jun 1.9 04:20:49 20° SW 04:22:34 36° SSE 04:25:33 10° E visible
01 Jul 2.6 03:25:39 24° SE 03:25:39 24° SE 03:27:49 10° E visible
01 Jul 1.2 04:58:32 10° WSW 05:01:42 65° S 05:04:54 10° E visible
02 Jul 1.3 04:02:48 28° SW 04:04:09 52° SSE 04:07:18 10° E visible
03 Jul 2.4 03:07:37 29° ESE 03:07:37 29° ESE 03:09:39 10° E visible
03 Jul 1.0 04:40:10 10° W 04:43:21 73° S 04:46:33 10° E visible
04 Jul 1.0 03:44:47 39° WSW 03:45:46 67° S 03:48:57 10° E visible
